North Clarendon, VT

6:36 PM EDT on August 30, 2016 (GMT -0400)
Rutland State

Weather History for KRUT - November, 2012

Change the Weather History Date:

Friday, November 30, 2012

  Actual Average Record
Temperature  
Mean Temperature 21 °F -  
Max Temperature 25 °F - 66 °F (2006)
Min Temperature 16 °F - 3 °F (2013)
Degree Days  
Heating Degree Days 44    
Month to date heating degree days 719  
Since 1 July heating degree days 1354  
Cooling Degree Days 0    
Month to date cooling degree days 0  
Year to date cooling degree days 411  
Moisture  
Dew Point 10 °F    
Average Humidity 67    
Maximum Humidity 81    
Minimum Humidity 52    
Precipitation  
Precipitation 0.00 in - 1.79 in (2005)
Month to date precipitation 0.37  
Year to date precipitation 21.85  
Sea Level Pressure  
Sea Level Pressure 30.44 in    
Wind  
Wind Speed 7 mph (NNW)    
Max Wind Speed 12 mph    
Max Gust Speed 17 mph    
Visibility 10 miles    
Events      
T = Trace of Precipitation, MM = Missing Value Source: NWS Daily Summary

Daily Weather History Graph

Daily Weather History Graph

Search for Another Location

Airport or City:

Trip Planner

Search our weather history database for the weather conditions in past years. The results will help you decide how hot, cold, wet, or windy it might be!

Date:

Astronomy

Nov. 30, 2012 Rise Set
Actual Time 7:04 AM EST 4:16 PM EST
Civil Twilight 6:32 AM EST 4:48 PM EST
Nautical Twilight 5:56 AM EST 5:24 PM EST
Astronomical Twilight 5:22 AM EST 5:58 PM EST
Moon 6:09 PM EST 8:34 AM EST
Length of Visible Light 10h 16m
Length of Day
9h 12m
Waning Gibbous, 96% of the Moon is Illuminated
Nov 30
Waning Gibbous
Dec 6
Last Quarter
Dec 13
New
Dec 20
First Quarter
Dec 28
Full

Hourly Weather History & Observations

Time (EST) Temp. Windchill Dew Point Humidity Pressure Visibility Wind Dir Wind Speed Gust Speed Precip Events Conditions
12:15 AM 24.8 °F 14.6 °F 19.4 °F 80% 30.25 in 10.0 mi NW 10.4 mph - N/A   Overcast
12:35 AM 24.8 °F 14.6 °F 19.4 °F 80% 30.26 in 10.0 mi NNW 10.4 mph - N/A   Overcast
12:55 AM 23.0 °F 11.7 °F 15.8 °F 74% 30.26 in 10.0 mi NW 11.5 mph 17.3 mph N/A   Overcast
1:15 AM 23.0 °F 11.1 °F 15.8 °F 74% 30.28 in 10.0 mi NNW 12.7 mph 17.3 mph N/A   Overcast
1:35 AM 23.0 °F 12.4 °F 15.8 °F 74% 30.28 in 10.0 mi NW 10.4 mph 16.1 mph N/A   Overcast
2:15 AM 23.0 °F 13.9 °F 14.0 °F 68% 30.31 in 10.0 mi NW 8.1 mph - N/A   Overcast
2:35 AM 21.2 °F 13.6 °F 14.0 °F 74% 30.32 in 10.0 mi NW 5.8 mph - N/A   Overcast
2:55 AM 21.2 °F 12.6 °F 12.2 °F 68% 30.32 in 10.0 mi NW 6.9 mph - N/A   Overcast
3:15 AM 21.2 °F 14.9 °F 12.2 °F 68% 30.33 in 10.0 mi NW 4.6 mph - N/A   Overcast
3:35 AM 21.2 °F 10.9 °F 10.4 °F 63% 30.33 in 10.0 mi NNW 9.2 mph - N/A   Overcast
4:15 AM 21.2 °F 12.6 °F 12.2 °F 68% 30.35 in 10.0 mi NW 6.9 mph - N/A   Overcast
4:35 AM 19.4 °F 7.9 °F 10.4 °F 68% 30.36 in 10.0 mi WNW 10.4 mph - N/A   Overcast
4:55 AM 19.4 °F 8.6 °F 10.4 °F 68% 30.37 in 10.0 mi NW 9.2 mph - N/A   Overcast
5:15 AM 19.4 °F 7.9 °F 10.4 °F 68% 30.38 in 10.0 mi NW 10.4 mph - N/A   Overcast
5:35 AM 19.4 °F 10.4 °F 10.4 °F 68% 30.39 in 10.0 mi NNW 6.9 mph - N/A   Overcast
6:15 AM 17.6 °F 10.7 °F 6.8 °F 63% 30.40 in 10.0 mi NNW 4.6 mph - N/A   Clear
6:35 AM 17.6 °F - 10.4 °F 73% 30.41 in 10.0 mi Calm Calm - N/A   Clear
6:55 AM 17.6 °F 9.3 °F 8.6 °F 68% 30.43 in 10.0 mi NNW 5.8 mph - N/A   Clear
7:15 AM 15.8 °F 6.1 °F 8.6 °F 73% 30.44 in 10.0 mi NNW 6.9 mph - N/A   Clear
7:35 AM 15.8 °F 8.6 °F 6.8 °F 68% 30.46 in 10.0 mi NW 4.6 mph - N/A   Partly Cloudy
7:55 AM 15.8 °F 7.2 °F 6.8 °F 68% 30.46 in 10.0 mi North 5.8 mph - N/A   Partly Cloudy
8:15 AM 15.8 °F 6.1 °F 5.0 °F 62% 30.46 in 10.0 mi NNW 6.9 mph - N/A   Clear
8:35 AM 15.8 °F 6.1 °F 6.8 °F 68% 30.46 in 10.0 mi North 6.9 mph - N/A   Partly Cloudy
8:55 AM 15.8 °F 7.2 °F 6.8 °F 68% 30.47 in 10.0 mi NW 5.8 mph - N/A   Clear
9:15 AM 15.8 °F 8.6 °F 6.8 °F 68% 30.48 in 10.0 mi North 4.6 mph - N/A   Clear
9:35 AM 17.6 °F 10.7 °F 8.6 °F 68% 30.48 in 10.0 mi NNW 4.6 mph - N/A   Clear
9:55 AM 17.6 °F 9.3 °F 6.8 °F 63% 30.49 in 10.0 mi North 5.8 mph - N/A   Clear
10:15 AM 17.6 °F 9.3 °F 10.4 °F 73% 30.49 in 10.0 mi NW 5.8 mph - N/A   Clear
10:35 AM 17.6 °F 10.7 °F 8.6 °F 68% 30.49 in 10.0 mi NW 4.6 mph - N/A   Clear
10:55 AM 17.6 °F 7.3 °F 6.8 °F 63% 30.48 in 10.0 mi North 8.1 mph - N/A   Clear
11:15 AM 17.6 °F 8.2 °F 8.6 °F 68% 30.47 in 10.0 mi North 6.9 mph - N/A   Clear
11:35 AM 17.6 °F 8.2 °F 6.8 °F 63% 30.48 in 10.0 mi North 6.9 mph - N/A   Clear
11:55 AM 19.4 °F 8.6 °F 8.6 °F 63% 30.47 in 10.0 mi North 9.2 mph - N/A   Clear
12:15 PM 19.4 °F 12.8 °F 8.6 °F 63% 30.47 in 10.0 mi NNW 4.6 mph - N/A   Clear
12:35 PM 19.4 °F 9.5 °F 6.8 °F 58% 30.47 in 10.0 mi North 8.1 mph - N/A   Clear
12:55 PM 19.4 °F 10.4 °F 8.6 °F 63% 30.46 in 10.0 mi North 6.9 mph - N/A   Mostly Cloudy
1:15 PM 19.4 °F 11.5 °F 6.8 °F 58% 30.45 in 10.0 mi NNW 5.8 mph - N/A   Overcast
1:35 PM 21.2 °F 13.6 °F 6.8 °F 54% 30.45 in 10.0 mi NNW 5.8 mph - N/A   Overcast
1:55 PM 21.2 °F 13.6 °F 6.8 °F 54% 30.45 in 10.0 mi North 5.8 mph - N/A   Overcast
2:15 PM 21.2 °F 12.6 °F 6.8 °F 54% 30.46 in 10.0 mi North 6.9 mph - N/A   Overcast
2:35 PM 19.4 °F 12.8 °F 6.8 °F 58% 30.46 in 10.0 mi NNW 4.6 mph - N/A   Overcast
2:55 PM 19.4 °F 9.5 °F 8.6 °F 63% 30.46 in 10.0 mi North 8.1 mph - N/A   Overcast
3:15 PM 19.4 °F 12.8 °F 8.6 °F 63% 30.47 in 10.0 mi NNW 4.6 mph - N/A   Overcast
3:35 PM 19.4 °F 12.8 °F 8.6 °F 63% 30.47 in 10.0 mi North 4.6 mph - N/A   Overcast
3:55 PM 19.4 °F 11.5 °F 10.4 °F 68% 30.47 in 10.0 mi NNW 5.8 mph - N/A   Overcast
4:15 PM 19.4 °F 10.4 °F 10.4 °F 68% 30.47 in 10.0 mi NNE 6.9 mph - N/A   Overcast
4:35 PM 19.4 °F 11.5 °F 10.4 °F 68% 30.47 in 10.0 mi North 5.8 mph - N/A   Overcast
4:55 PM 19.4 °F 10.4 °F 10.4 °F 68% 30.47 in 10.0 mi North 6.9 mph - N/A   Overcast
5:15 PM 19.4 °F 12.8 °F 10.4 °F 68% 30.48 in 10.0 mi North 4.6 mph - N/A   Overcast
5:35 PM 19.4 °F 12.8 °F 10.4 °F 68% 30.48 in 10.0 mi North 4.6 mph - N/A   Overcast
5:55 PM 19.4 °F 11.5 °F 10.4 °F 68% 30.48 in 10.0 mi North 5.8 mph - N/A   Overcast
6:15 PM 19.4 °F 12.8 °F 10.4 °F 68% 30.49 in 10.0 mi North 4.6 mph - N/A   Overcast
6:35 PM 19.4 °F 11.5 °F 10.4 °F 68% 30.50 in 10.0 mi North 5.8 mph - N/A   Overcast
7:15 PM 19.4 °F 14.3 °F 10.4 °F 68% 30.50 in 10.0 mi North 3.5 mph - N/A   Overcast
7:35 PM 19.4 °F 14.3 °F 10.4 °F 68% 30.50 in 10.0 mi North 3.5 mph - N/A   Overcast
8:15 PM 17.6 °F 12.3 °F 10.4 °F 73% 30.51 in 10.0 mi North 3.5 mph - N/A   Overcast
8:35 PM 17.6 °F 10.7 °F 10.4 °F 73% 30.51 in 10.0 mi North 4.6 mph - N/A   Overcast
8:55 PM 17.6 °F - 10.4 °F 73% 30.51 in 10.0 mi Calm Calm - N/A   Overcast
9:15 PM 17.6 °F 10.7 °F 10.4 °F 73% 30.50 in 10.0 mi North 4.6 mph - N/A   Overcast
9:35 PM 17.6 °F 12.3 °F 10.4 °F 73% 30.50 in 10.0 mi North 3.5 mph - N/A   Overcast
9:55 PM 17.6 °F 9.3 °F 10.4 °F 73% 30.50 in 10.0 mi North 5.8 mph - N/A   Overcast
10:15 PM 17.6 °F 9.3 °F 10.4 °F 73% 30.50 in 10.0 mi North 5.8 mph - N/A   Overcast
10:35 PM 17.6 °F 12.3 °F 10.4 °F 73% 30.50 in 10.0 mi NNW 3.5 mph - N/A   Overcast
10:55 PM 17.6 °F 10.7 °F 12.2 °F 79% 30.51 in 10.0 mi NW 4.6 mph - N/A   Overcast
11:15 PM 17.6 °F 9.3 °F 10.4 °F 73% 30.52 in 10.0 mi NNW 5.8 mph - N/A   Overcast
11:35 PM 17.6 °F 10.7 °F 10.4 °F 73% 30.52 in 10.0 mi North 4.6 mph - N/A   Overcast